Find Starlink 32588

NORAD ID: 61866 Int'l Des: 2024-202 Owner: SPXS Country: US Constellation: starlink operational
LEOCIRCULAR

リアルタイム位置

3D地球を読み込み中...

Starlink 32588について

説明を読み込み中...

次回通過

Passes for default location (London). Set your location on the main map for personalized predictions.

高度履歴

Loading altitude history...

軌道要素

1 61866U 24202X 26105.16946155 .00000621 00000-0 32089-4 0 9993
2 61866 43.0040 32.2378 0001102 278.8289 81.2438 15.27583155 80919
Epoch: Apr 15, 2026 • Age: 7 hours

現在のステータス

高度 495.6 km
速度 7.62 km/s
衛星直下点 -43.13°S, 78.48°W
打ち上げ日 Nov 7, 2024
運用期間 1.4 years
タイプ internet

技術仕様

分類 Payload
質量 730.00 kg
乾燥質量 700.00 kg
総質量 730.00 kg
長さ 0.30 m
直径 4.10 m
スパン 29.00 m
形状 Box + pan
製造者 SPXS
バスタイプ Starlink V2M
フェーズステータス In Orbit
所有者/国 SPXS/US

Most Searched